User: anonymous   Login
Location: Unspecified
(0.0000°N, 0.0000°E)
Time: 21:57:16
(UTC+00:00)
Language:

Magion-3 - Orbit

View from above orbital plane
View from above orbital plane
View from above satellite
View from above satellite

Ground track
Ground track

The orbit data is extracted from the following two-line orbital elements,

1 21835U 91086E   18018.09704805  .00000117  00000-0  22125-4 0  9999
2 21835  82.5391 263.6728 1498365 254.1520  88.9839 12.10565648140938
Epoch (UTC): 18 January 2018 02:19:44
Eccentricity: 0.1498365
inclination: 82.5391°
perigee height: 433 km
apogee height: 2834 km
right ascension of ascending node: 263.6728°
argument of perigee: 254.1520°
revolutions per day: 12.10565648
mean anomaly at epoch: 88.9839°
orbit number at epoch: 14093

The dashed part of the orbit path shows where the satellite is in the earth's shadow,  

DLR